EW7084 Weather Reports


Display with metric or nautical units.
time (UTC)temp
F
wind
direction
speed
MPH
gust
MPH
rain 1hr
in
rain 24hr
in
rain mn
in
humidity
%
barometer
mb
20260906023059 62 24 0.0 0.0 0.00 0.00 0.00 84 1014.9
20260906021548 63 24 0.0 0.0 0.00 0.00 0.00 83 1014.8
20260906020046 64 24 0.0 0.0 0.00 0.00 0.00 82 1014.7
20260906014547 64 24 0.0 0.0 0.00 0.00 0.00 81 1014.6
20260906013045 65 24 0.0 0.0 0.00 0.00 0.00 79 1014.5
20260906011544 65 24 0.0 0.0 0.00 0.00 0.00 78 1014.5
20260906010044 66 24 0.0 0.0 0.00 0.00 0.00 76 1014.5
20260906004541 67 24 0.0 0.0 0.00 0.00 0.00 76 1014.3
20260906003042 68 24 0.0 0.0 0.00 0.00 0.00 75 1014.1
20260906001542 69 24 0.0 0.0 0.00 0.00 0.00 74 1013.9
20260906000041 70 24 0.0 0.0 0.00 0.00 0.00 73 1013.9
20260905234541 70 24 0.0 0.0 0.00 0.00 0.00 73 1013.8
20260905233049 71 24 0.0 4.0 0.00 0.00 0.00 71 1013.8
20260905231539 72 24 1.0 5.0 0.00 0.00 0.00 69 1013.7
20260905230039 73 24 2.0 6.0 0.00 0.00 0.00 67 1013.6
20260905224608 74 26 2.0 8.0 0.00 0.00 0.00 64 1013.4
20260905223043 75 90 0.0 4.0 0.00 0.00 0.00 64 1013.4
20260905221537 76 284 1.0 5.0 0.00 0.00 0.00 67 1013.3
20260905220036 75 278 2.0 4.0 0.00 0.00 0.00 65 1013.2
20260905213035 76 277 1.0 4.0 0.00 0.00 0.00 63 1012.9
20260905211543 76 277 1.0 4.0 0.00 0.00 0.00 62 1013.0
20260905210042 76 275 0.0 4.0 0.00 0.00 0.00 62 1012.9
20260905204535 77 26 1.0 9.0 0.00 0.00 0.00 60 1012.8
20260905203031 76 12 0.0 1.0 0.00 0.00 0.00 60 1012.7
20260905201529 76 292 0.0 1.0 0.00 0.00 0.00 60 1012.8
20260905200030 76 269 0.0 1.0 0.00 0.00 0.00 59 1012.8
20260905194529 76 288 0.0 1.0 0.00 0.00 0.00 62 1012.8
20260905193026 76 292 0.0 1.0 0.00 0.00 0.00 60 1012.7
20260905191525 76 292 0.0 1.0 0.00 0.00 0.00 60 1012.9
20260905190025 75 273 0.0 1.0 0.00 0.00 0.00 62 1013.0
20260905184529 75 17 0.0 1.0 0.00 0.00 0.00 63 1013.0
20260905183023 74 5 0.0 1.0 0.00 0.00 0.00 62 1012.9
20260905181521 74 289 0.0 1.0 0.00 0.00 0.00 63 1013.0
20260905180020 74 195 0.0 0.0 0.00 0.00 0.00 63 1012.9
20260905174524 74 271 0.0 0.0 0.00 0.00 0.00 61 1013.0
20260905173017 74 269 0.0 0.0 0.00 0.00 0.00 63 1013.0
20260905171514 73 299 0.0 1.0 0.00 0.00 0.00 67 1013.3
20260905170012 72 303 0.0 0.0 0.00 0.00 0.00 67 1013.4
20260905164518 72 294 0.0 1.0 0.00 0.00 0.00 68 1013.4
20260905163013 72 273 0.0 1.0 0.00 0.00 0.00 66 1013.4
20260905161510 72 254 0.0 1.0 0.00 0.00 0.00 68 1013.3
20260905160009 71 292 0.0 1.0 0.00 0.00 0.00 68 1013.4
20260905154510 71 5 0.0 1.0 0.00 0.00 0.00 71 1013.5
20260905153005 70 346 0.0 1.0 0.00 0.00 0.00 70 1013.5
20260905151513 70 282 0.0 1.0 0.00 0.00 0.00 70 1013.6
20260905150006 70 42 0.0 1.0 0.00 0.00 0.00 72 1013.7
20260905144506 70 32 0.0 1.0 0.00 0.00 0.00 74 1013.6
20260905143103 69 295 0.0 1.0 0.00 0.00 0.00 77 1013.6
20260905141554 67 241 0.0 1.0 0.00 0.00 0.00 82 1013.7
20260905140055 66 259 0.0 1.0 0.00 0.00 0.00 86 1013.7
20260905134556 65 199 0.0 0.0 0.00 0.00 0.00 91 1013.6
20260905133056 63 175 0.0 0.0 0.00 0.00 0.00 91 1013.6
20260905131554 63 175 0.0 0.0 0.00 0.00 0.00 92 1013.7
20260905130050 62 175 0.0 0.0 0.00 0.00 0.00 92 1013.7
20260905124550 61 175 0.0 0.0 0.00 0.00 0.00 92 1014.0
20260905123059 60 175 0.0 0.0 0.00 0.00 0.00 92 1014.3
20260905121553 59 175 0.0 0.0 0.00 0.00 0.00 91 1014.3
20260905120046 59 175 0.0 0.0 0.00 0.00 0.00 91 1014.1
20260905114544 58 175 0.0 0.0 0.00 0.00 0.00 91 1013.6
20260905113042 57 175 0.0 0.0 0.00 0.00 0.00 91 1013.5
20260905111542 57 175 0.0 0.0 0.00 0.00 0.00 90 1013.4
20260905110041 57 175 0.0 0.0 0.00 0.00 0.00 90 1013.4
20260905104544 57 175 0.0 0.0 0.00 0.00 0.00 90 1013.1
20260905103039 57 175 0.0 0.0 0.00 0.00 0.00 90 1012.8
20260905101547 57 175 0.0 0.0 0.00 0.00 0.00 90 1012.6
20260905100111 57 175 0.0 0.0 0.00 0.00 0.00 90 1012.5
20260905094546 57 175 0.0 0.0 0.00 0.00 0.00 90 1012.5
20260905093035 57 175 0.0 0.0 0.00 0.00 0.00 90 1012.4
20260905091540 58 175 0.0 0.0 0.00 0.00 0.00 90 1012.3
20260905090032 58 175 0.0 0.0 0.00 0.00 0.00 90 1012.4
20260905084535 58 175 0.0 0.0 0.00 0.00 0.00 90 1012.4
20260905083031 58 175 0.0 0.0 0.00 0.00 0.00 90 1012.4
20260905080027 59 175 0.0 0.0 0.00 0.00 0.00 90 1012.5
20260905074528 59 175 0.0 0.0 0.00 0.00 0.00 89 1012.5
20260905073023 60 175 0.0 0.0 0.00 0.00 0.00 89 1012.5
20260905071521 60 175 0.0 0.0 0.00 0.00 0.00 89 1012.6
20260905070020 60 175 0.0 0.0 0.00 0.00 0.00 89 1012.8
20260905064518 61 175 0.0 0.0 0.00 0.00 0.00 88 1012.9
20260905063015 61 175 0.0 0.0 0.00 0.00 0.00 87 1012.9
20260905061512 62 175 0.0 0.0 0.00 0.00 0.00 87 1013.0
20260905060009 63 175 0.0 0.0 0.00 0.00 0.00 86 1013.1
20260905054521 63 175 0.0 0.0 0.00 0.00 0.00 86 1013.2
20260905053006 64 175 0.0 0.0 0.00 0.00 0.00 86 1013.2
20260905051508 64 175 0.0 0.0 0.00 0.00 0.00 85 1013.3
20260905050001 64 175 0.0 0.0 0.00 0.00 0.00 85 1013.4
20260905044608 65 175 0.0 0.0 0.00 0.07 0.00 85 1013.4
20260905043103 66 175 0.0 0.0 0.00 0.07 0.00 85 1013.4
20260905041555 67 175 0.0 0.0 0.00 0.07 0.00 85 1013.4
20260905040105 67 175 0.0 0.0 0.00 0.07 0.00 85 1013.3
20260905034601 68 175 0.0 0.0 0.00 0.87 0.07 85 1013.2
20260905033052 68 175 0.0 0.0 0.00 0.87 0.07 85 1013.2
20260905031551 68 175 0.0 0.0 0.00 0.87 0.07 83 1013.0
20260905030050 69 175 0.0 0.0 0.00 0.87 0.07 83 1013.1
20260905024558 70 175 0.0 0.0 0.00 0.87 0.07 83 1013.0